Hutchinson, MN

12:19 PM CDT on July 22, 2017 (GMT -0500)
Hutchinson Municipal-Butler

Weather History for KHCD - October, 2013

Change the Weather History Date:

Monday, October 21, 2013

  Actual Average Record
Temperature  
Mean Temperature 32 °F -  
Max Temperature 41 °F 56 °F 78 °F (1978)
Min Temperature 23 °F 35 °F 22 °F (1967)
Degree Days  
Heating Degree Days 34    
Moisture  
Dew Point 23 °F    
Average Humidity 67    
Maximum Humidity 94    
Minimum Humidity 50    
Precipitation  
Precipitation 0.00 in - - ()
Sea Level Pressure  
Sea Level Pressure 29.96 in    
Wind  
Wind Speed 10 mph (WNW)    
Max Wind Speed 16 mph    
Max Gust Speed 26 mph    
Visibility 10 miles    
Events      
Averages and records for this station are not official NWS values.
T = Trace of Precipitation, MM = Missing Value Source: NWS Daily Summary

Daily Weather History Graph

Daily Weather History Graph

Search for Another Location

Airport or City:

Trip Planner

Search our weather history database for the weather conditions in past years. The results will help you decide how hot, cold, wet, or windy it might be!

Date:

Astronomy

Oct. 21, 2013 Rise Set
Actual Time 7:41 AM CDT 6:22 PM CDT
Civil Twilight 7:11 AM CDT 6:51 PM CDT
Nautical Twilight 6:37 AM CDT 7:26 PM CDT
Astronomical Twilight 6:03 AM CDT 7:59 PM CDT
Moon 8:09 PM CDT (10/21) 10:22 AM CDT (10/21)
Length of Visible Light 11h 40m
Length of Day
10h 40m
Waning Gibbous, 92% of the Moon is Illuminated
Oct 21
Waning Gibbous
Oct 26
Last Quarter
Nov 3
New
Nov 9
First Quarter
Nov 17
Full

Hourly Weather History & Observations

Time (CDT) Temp. Windchill Dew Point Humidity Pressure Visibility Wind Dir Wind Speed Gust Speed Precip Events Conditions
12:14 AM 35.6 °F 26.2 °F 26.1 °F 68% 29.93 in 10.0 mi NW 15.0 mph 20.7 mph N/A   Overcast
12:34 AM 35.2 °F 27.1 °F 25.0 °F 66% 29.94 in 10.0 mi NW 11.5 mph - N/A   Overcast
12:53 AM 35.2 °F 28.1 °F 24.8 °F 66% 29.94 in 10.0 mi WNW 9.2 mph 16.1 mph N/A   Overcast
1:14 AM 35.6 °F 29.9 °F 24.3 °F 63% 29.94 in 10.0 mi NW 6.9 mph 19.6 mph N/A   Overcast
1:33 AM 35.2 °F 30.3 °F 25.3 °F 67% 29.94 in 10.0 mi WNW 5.8 mph - N/A   Overcast
1:54 AM 35.2 °F 28.1 °F 25.5 °F 68% 29.94 in 10.0 mi NW 9.2 mph - N/A   Overcast
2:14 AM 35.1 °F 26.4 °F 24.6 °F 66% 29.95 in 10.0 mi WNW 12.7 mph 18.4 mph N/A   Overcast
2:33 AM 34.9 °F 26.6 °F 23.2 °F 62% 29.95 in 10.0 mi WNW 11.5 mph 20.7 mph N/A   Overcast
2:53 AM 34.7 °F 28.8 °F 23.4 °F 63% 29.96 in 10.0 mi WNW 6.9 mph - N/A   Overcast
3:13 AM 34.7 °F 28.8 °F 23.7 °F 64% 29.96 in 10.0 mi WNW 6.9 mph - N/A   Overcast
3:33 AM 34.3 °F 27.0 °F 24.1 °F 66% 29.96 in 10.0 mi West 9.2 mph - N/A   Overcast
3:54 AM 34.2 °F 26.8 °F 23.7 °F 66% 29.96 in 10.0 mi WNW 9.2 mph - N/A   Overcast
4:13 AM 33.1 °F 26.9 °F 23.0 °F 66% 29.96 in 10.0 mi WNW 6.9 mph - N/A   Mostly Cloudy
4:34 AM 33.8 °F 23.5 °F 20.7 °F 59% 29.96 in 10.0 mi NW 16.1 mph 23.0 mph N/A   Overcast
4:54 AM 32.4 °F 23.5 °F 24.3 °F 72% 29.96 in 10.0 mi West 11.5 mph - N/A   Overcast
5:13 AM 32.5 °F 24.2 °F 24.4 °F 72% 29.97 in 10.0 mi WNW 10.4 mph - N/A   Overcast
5:33 AM 32.9 °F 25.9 °F 24.3 °F 71% 29.96 in 10.0 mi WNW 8.1 mph - N/A   Overcast
5:54 AM 33.4 °F 25.4 °F 21.4 °F 61% 29.97 in 10.0 mi WNW 10.4 mph 18.4 mph N/A   Overcast
6:14 AM 32.9 °F 24.7 °F 23.9 °F 69% 29.97 in 10.0 mi West 10.4 mph 16.1 mph N/A   Overcast
6:33 AM 32.4 °F 24.0 °F 25.0 °F 74% 29.97 in 10.0 mi West 10.4 mph - N/A   Overcast
6:53 AM 32.9 °F 24.1 °F 23.5 °F 68% 29.96 in 10.0 mi West 11.5 mph 16.1 mph N/A   Overcast
7:14 AM 33.1 °F 25.5 °F 22.8 °F 66% 29.97 in 10.0 mi West 9.2 mph 17.3 mph N/A   Overcast
7:34 AM 32.2 °F 25.0 °F 25.3 °F 76% 29.97 in 10.0 mi West 8.1 mph - N/A   Overcast
7:53 AM 32.2 °F 23.8 °F 25.9 °F 78% 29.97 in 10.0 mi West 10.4 mph - N/A   Overcast
8:13 AM 32.7 °F 24.5 °F 24.8 °F 73% 29.97 in 10.0 mi WNW 10.4 mph - N/A   Overcast
8:34 AM 32.9 °F 25.9 °F 24.4 °F 71% 29.98 in 10.0 mi WNW 8.1 mph - N/A   Overcast
8:54 AM 33.3 °F 26.4 °F 23.9 °F 69% 29.98 in 10.0 mi WNW 8.1 mph - N/A   Overcast
9:13 AM 33.8 °F 24.8 °F 21.7 °F 61% 29.98 in 10.0 mi WNW 12.7 mph 19.6 mph N/A   Overcast
9:33 AM 34.0 °F 25.5 °F 20.7 °F 58% 29.99 in 10.0 mi WNW 11.5 mph 21.9 mph N/A   Overcast
9:53 AM 34.2 °F 24.4 °F 20.5 °F 57% 29.99 in 10.0 mi WNW 15.0 mph 21.9 mph N/A   Overcast
10:13 AM 34.0 °F 23.8 °F 21.2 °F 60% 29.98 in 10.0 mi WNW 16.1 mph 23.0 mph N/A   Overcast
10:33 AM 33.8 °F 26.4 °F 24.6 °F 69% 29.99 in 10.0 mi West 9.2 mph - N/A   Overcast
10:53 AM 34.3 °F 24.6 °F 23.0 °F 63% 29.98 in 10.0 mi West 15.0 mph 20.7 mph N/A   Overcast
11:14 AM 34.7 °F 26.4 °F 22.6 °F 61% 29.98 in 10.0 mi WNW 11.5 mph 19.6 mph N/A   Overcast
11:33 AM 34.3 °F 25.9 °F 23.4 °F 64% 29.98 in 10.0 mi West 11.5 mph 18.4 mph N/A   Overcast
11:53 AM 34.9 °F 25.3 °F 21.4 °F 58% 29.98 in 10.0 mi WNW 15.0 mph 18.4 mph N/A   Overcast
12:13 PM 35.8 °F 26.5 °F 20.5 °F 54% 29.98 in 10.0 mi NW 15.0 mph 20.7 mph N/A   Overcast
12:33 PM 35.8 °F 26.5 °F 20.7 °F 54% 29.97 in 10.0 mi WNW 15.0 mph 21.9 mph N/A   Overcast
12:49 PM 36.1 °F 27.7 °F 21.0 °F 54% 29.97 in 10.0 mi WNW 12.7 mph 19.6 mph N/A   Overcast
1:13 PM 36.3 °F 27.5 °F 22.1 °F 56% 29.97 in 10.0 mi West 13.8 mph 17.3 mph N/A   Overcast
1:34 PM 36.5 °F 27.4 °F 22.5 °F 57% 29.96 in 10.0 mi West 15.0 mph 20.7 mph N/A   Overcast
1:53 PM 37.2 °F 28.3 °F 22.5 °F 55% 29.96 in 10.0 mi West 15.0 mph 23.0 mph N/A   Overcast
2:13 PM 37.4 °F 28.5 °F 21.7 °F 53% 29.95 in 10.0 mi West 15.0 mph 26.5 mph N/A   Overcast
2:34 PM 38.3 °F 29.3 °F 23.2 °F 55% 29.95 in 10.0 mi West 16.1 mph 23.0 mph N/A   Overcast
2:54 PM 38.7 °F 30.9 °F 22.6 °F 53% 29.95 in 10.0 mi WNW 12.7 mph 20.7 mph N/A   Mostly Cloudy
3:13 PM 39.9 °F 32.1 °F 23.9 °F 53% 29.95 in 10.0 mi WNW 13.8 mph 19.6 mph N/A   Mostly Cloudy
3:34 PM 39.6 °F 31.7 °F 23.7 °F 53% 29.95 in 10.0 mi West 13.8 mph 20.7 mph N/A   Mostly Cloudy
3:53 PM 40.6 °F 33.4 °F 23.4 °F 50% 29.95 in 10.0 mi WNW 12.7 mph 18.4 mph N/A   Mostly Cloudy
4:13 PM 40.1 °F 32.4 °F 23.4 °F 51% 29.96 in 10.0 mi West 13.8 mph 18.4 mph N/A   Scattered Clouds
4:34 PM 40.6 °F 33.0 °F 23.9 °F 51% 29.95 in 10.0 mi West 13.8 mph 18.4 mph N/A   Scattered Clouds
4:54 PM 40.1 °F 33.6 °F 24.4 °F 54% 29.95 in 10.0 mi West 10.4 mph 18.4 mph N/A   Mostly Cloudy
5:14 PM 39.0 °F 31.8 °F 23.9 °F 55% 29.96 in 10.0 mi WNW 11.5 mph 16.1 mph N/A   Scattered Clouds
5:33 PM 38.8 °F 32.1 °F 23.9 °F 55% 29.96 in 10.0 mi West 10.4 mph - N/A   Clear
5:54 PM 38.3 °F 34.8 °F 23.9 °F 56% 29.96 in 10.0 mi WNW 4.6 mph - N/A   Clear
6:13 PM 36.7 °F 32.0 °F 24.3 °F 61% 29.96 in 10.0 mi WNW 5.8 mph - N/A   Clear
6:33 PM 35.1 °F 31.0 °F 24.4 °F 65% 29.96 in 10.0 mi WNW 4.6 mph - N/A   Clear
6:53 PM 34.2 °F 29.0 °F 24.6 °F 68% 29.97 in 10.0 mi WNW 5.8 mph - N/A   Clear
7:14 PM 33.3 °F 28.9 °F 24.6 °F 71% 29.97 in 10.0 mi WNW 4.6 mph - N/A   Clear
7:34 PM 31.8 °F 28.5 °F 24.6 °F 75% 29.97 in 10.0 mi WNW 3.5 mph - N/A   Clear
7:53 PM 31.3 °F 26.6 °F 24.4 °F 76% 29.97 in 10.0 mi WNW 4.6 mph - N/A   Clear
8:13 PM 31.5 °F 26.8 °F 24.6 °F 76% 29.97 in 10.0 mi WNW 4.6 mph - N/A   Clear
8:33 PM 27.1 °F 23.2 °F 23.5 °F 86% 29.97 in 10.0 mi West 3.5 mph - N/A   Clear
8:53 PM 28.0 °F - 24.3 °F 86% 29.97 in 10.0 mi Calm Calm - N/A   Clear
9:14 PM 26.8 °F 22.8 °F 24.3 °F 90% 29.97 in 10.0 mi WNW 3.5 mph - N/A   Clear
9:33 PM 26.2 °F - 23.7 °F 90% 29.97 in 10.0 mi Calm Calm - N/A   Clear
9:53 PM 25.3 °F - 23.5 °F 93% 29.97 in 10.0 mi Calm Calm - N/A   Clear
10:13 PM 24.6 °F - 23.2 °F 94% 29.97 in 10.0 mi Calm Calm - N/A   Clear
10:33 PM 24.8 °F 20.5 °F 23.0 °F 93% 29.97 in 10.0 mi WNW 3.5 mph - N/A   Clear
10:53 PM 24.3 °F 19.9 °F 22.5 °F 93% 29.97 in 10.0 mi NNW 3.5 mph - N/A   Clear
11:14 PM 25.0 °F - 22.6 °F 91% 29.97 in 10.0 mi Calm Calm - N/A   Clear
11:33 PM 23.7 °F - 22.1 °F 94% 29.97 in 10.0 mi Calm Calm - N/A   Clear
11:54 PM 24.4 °F 20.1 °F 23.0 °F 94% 29.97 in 10.0 mi NW 3.5 mph - N/A   Clear